This is the latest recevied weather packets stored in our database for station/object ZL1CTS-13. If no packets are shown the sender has not sent any weather packets the latest 10 day(s).
| Time | Temp. | Humidity | Pressure | Rain* | Wind** | Luminosity | Snow |
|---|---|---|---|---|---|---|---|
| 1787794204 | 18.89° C | 84% | 1018 hPa | 0 mm | - | - | - |
| 1787793904 | 18.89° C | 84% | 1018 hPa | 0 mm | - | - | - |
| 1787793604 | 18.89° C | 84% | 1018 hPa | 0 mm | - | - | - |
| 1787793303 | 18.33° C | 84% | 1018 hPa | 0 mm | - | - | - |
| 1787793008 | 18.89° C | 83% | 1018 hPa | 0 mm | - | - | - |
| 1787792704 | 18.89° C | 83% | 1018.1 hPa | 0 mm | - | - | - |
| 1787792409 | 18.89° C | 82% | 1018.1 hPa | 0 mm | - | - | - |
| 1787792104 | 18.89° C | 80% | 1018.1 hPa | 0 mm | - | - | - |
| 1787791804 | 20° C | 83% | 1018.2 hPa | 0 mm | - | - | - |
| 1787791504 | 18.89° C | 87% | 1018.3 hPa | 0 mm | - | - | - |
| 1787791204 | 17.78° C | 84% | 1018.4 hPa | 0 mm | - | - | - |
| 1787790904 | 18.33° C | 84% | 1018.5 hPa | 0 mm | - | - | - |
| 1787790604 | 18.33° C | 84% | 1018.4 hPa | 0 mm | - | - | - |
| 1787790304 | 18.33° C | 84% | 1018.5 hPa | 0 mm | - | - | - |
| 1787790004 | 18.33° C | 84% | 1018.4 hPa | 0 mm | - | - | - |
| 1787789704 | 18.33° C | 83% | 1018.5 hPa | 0 mm | - | - | - |
| 1787789404 | 18.33° C | 83% | 1018.5 hPa | 0 mm | - | - | - |
| 1787789104 | 18.33° C | 82% | 1018.6 hPa | 0 mm | - | - | - |
| 1787788807 | 18.89° C | 81% | 1018.5 hPa | 0 mm | - | - | - |
| 1787788503 | 19.44° C | 79% | 1018.6 hPa | 0 mm | - | - | - |
| 1787788204 | 19.44° C | 80% | 1018.6 hPa | 0 mm | - | - | - |
| 1787787904 | 18.89° C | 78% | 1018.6 hPa | 0 mm | - | - | - |
| 1787787604 | 20° C | 79% | 1018.6 hPa | 0 mm | - | - | - |
| 1787787304 | 19.44° C | 80% | 1018.7 hPa | 0 mm | - | - | - |
* Rain latest hour (hover to see other rain measurements)
** Current wind speed in m/s (hover to see current wind gust speed)